星链-3401 (STARLINK-3401 )

导读 | 豆包AI

STARLINK-3401是美国太空探索技术公司(SpaceX)星链互联网卫星星座的一员,于2022年2月3日发射。星链计划旨在构建全球卫星互联网,该卫星入轨后为星座扩容,服务覆盖偏远地区、提供通信备份等,目前已在轨运行超4年,是星链数千颗运营卫星中的组成部分,支撑全球低轨宽带网络服务。

基本信息
目录编号:
51465
目录名称:
STARLINK-3401
国际标识:
2022-010K
轨道中心:
EARTH
卫星名称:
星链-3401
卫星全名:
星链-3401 (STARLINK-3401 )
卫星状态:
在轨 (已飞行1500 天)
发射日期:
2022-02-03 UTC
国别 :
美国 (US)
星等 :
--
轨道信息
数据来源 国际轨道数据 AOE轨道数据
星历时间 2026-03-14T06:16:45+0800
21小时前
查看轨道信息
2026-03-12T16:00:00+0800
2天前
查看轨道信息
半长轴 6917.89km 6917.904km
偏心率 0.0001368 0.0001281
轨道倾角 53.216° 53.215°
近地点辐角 94.917° 82.999°
升交点赤经 260.093° 267.254°
平近点角 265.197° 248.869°
近地点 538.806km 538.88km
远地点 540.7km 540.654km
周期 95.438分钟 95.438分钟
每日圈数 15.08837 15.088323
详细信息
固有亮度:
5
最大亮度:
2.5
卫星平台:
Starlink v1.5
覆盖范围:
全球
运营商:
太空探索技术公司
运营商所在国:
美国
制造商(研发单位):
太空探索技术公司
制造商所在国:
美国
使用方式:
暂无
卫星简介
星链(Starlink)计划是由太空探索技术公司(SpaceX)提出的一个巨型低轨卫星互联网星座项目,计划在2019年至2024年间在太空搭建由约1.2万颗卫星组成的“星链”网络,其中1584颗将部署在地球上空550千米处的近地轨道,并从2020年开始工作。该卫星仍在工作。
2D轨道图
3D轨道图
轨道高度分析图
轨道倾角分析图
轨道综合分析图
查看轨道综合分析图